User: anonymous
Location: Brno
(49.2000°N, 16.6330°E)
Time: 00:07:23
(UTC+02:00)
Language:

Meteor 1-4 Rocket - Orbit

View from above orbital plane
View from above orbital plane
View from above satellite
View from above satellite

Ground track
Ground track

The orbit data is extracted from the following two-line orbital elements,

1 04394U 70037B   14241.17675056  .00004040  00000-0  17660-3 0  6556
2 04394 081.2462 131.3002 0048130 005.8102 354.3677 15.20772802408806
Epoch (UTC): 29 August 2014 04:14:31
Eccentricity: 0.0048130
inclination: 81.2462°
perigee height: 470 km
apogee height: 536 km
right ascension of ascending node: 131.3002°
argument of perigee: 5.8102°
revolutions per day: 15.20772802
mean anomaly at epoch: 354.3677°
orbit number at epoch: 40880

The dashed part of the orbit path shows where the satellite is in the earth's shadow,  

DLR